Change the Weather History Date:

Wednesday, December 5, 2012

  Actual Average Record
Temperature  
Mean Temperature 18 °F -  
Max Temperature 32 °F 27 °F 37 °F (1998)
Min Temperature 3 °F 13 °F -5 °F (2000)
Degree Days  
Heating Degree Days 48    
Moisture  
Dew Point 11 °F    
Average Humidity 69    
Maximum Humidity 86    
Minimum Humidity 51    
Precipitation  
Precipitation 0.00 in - - ()
Sea Level Pressure  
Sea Level Pressure 30.17 in    
Wind  
Wind Speed 3 mph (SE)    
Max Wind Speed 10 mph    
Max Gust Speed -    
Visibility 10 miles    
Events      
Averages and records for this station are not official NWS values.
T = Trace of Precipitation, MM = Missing Value Source: NWS Daily Summary

Daily Weather History Graph

Daily Weather History Graph

Search for Another Location

Airport or City:

Trip Planner

Search our weather history database for the weather conditions in past years. The results will help you decide how hot, cold, wet, or windy it might be!

Date:

Astronomy

Dec. 05, 2012 Rise Set
Actual Time 7:36 AM CST 4:16 PM CST
Civil Twilight 7:01 AM CST 4:51 PM CST
Nautical Twilight 6:23 AM CST 5:29 PM CST
Astronomical Twilight 5:46 AM CST 6:06 PM CST
Moon 11:26 PM CST (12/5) 11:41 AM CST (12/5)
Length of Visible Light 9h 49m
Length of Day
8h 39m
Waning Gibbous, 59% of the Moon is Illuminated
Dec 5
Waning Gibbous
Dec 6
Last Quarter
Dec 13
New
Dec 19
First Quarter
Dec 28
Full

Hourly Weather History & Observations

Time (CST) Temp. Windchill Dew Point Humidity Pressure Visibility Wind Dir Wind Speed Gust Speed Precip Events Conditions
12:13 AM 12.2 °F - 5.0 °F 73% 30.33 in 10.0 mi Calm Calm - N/A   Clear
12:33 AM 10.4 °F - 3.2 °F 73% 30.34 in 10.0 mi Calm Calm - N/A   Clear
12:53 AM 10.4 °F - 3.2 °F 73% 30.35 in 10.0 mi Calm Calm - N/A   Clear
1:13 AM 8.6 °F - 3.2 °F 79% 30.33 in 10.0 mi Calm Calm - N/A   Clear
1:53 AM 8.6 °F 2.0 °F 3.2 °F 79% 30.35 in 10.0 mi WNW 3.5 mph - N/A   Clear
2:13 AM 8.6 °F - 3.2 °F 79% 30.36 in 10.0 mi Calm Calm - N/A   Clear
2:33 AM 8.6 °F - 3.2 °F 79% 30.36 in 10.0 mi Calm Calm - N/A   Clear
2:53 AM 6.8 °F - 1.4 °F 79% 30.36 in 10.0 mi Calm Calm - N/A   Clear
3:13 AM 5.0 °F - -0.4 °F 78% 30.35 in 10.0 mi Calm Calm - N/A   Clear
3:53 AM 3.2 °F - -0.4 °F 85% 30.34 in 10.0 mi Calm Calm - N/A   Clear
4:13 AM 5.0 °F - -0.4 °F 78% 30.35 in 10.0 mi Calm Calm - N/A   Clear
4:33 AM 3.2 °F - -0.4 °F 85% 30.36 in 10.0 mi Calm Calm - N/A   Clear
4:53 AM 3.2 °F - -0.4 °F 85% 30.37 in 10.0 mi Calm Calm - N/A   Clear
5:13 AM 3.2 °F - -0.4 °F 85% 30.37 in 10.0 mi Calm Calm - N/A   Clear
5:33 AM 3.2 °F - -0.4 °F 85% 30.37 in 10.0 mi Calm Calm - N/A   Clear
5:53 AM 3.2 °F - -2.2 °F 78% 30.36 in 10.0 mi Calm Calm - N/A   Clear
6:13 AM 3.2 °F - -2.2 °F 78% 30.36 in 10.0 mi Calm Calm - N/A   Clear
6:33 AM 3.2 °F - -2.2 °F 78% 30.36 in 10.0 mi Calm Calm - N/A   Clear
6:53 AM 3.2 °F - -2.2 °F 78% 30.36 in 10.0 mi Calm Calm - N/A   Clear
8:53 AM 12.2 °F - 8.6 °F 85% 30.36 in 10.0 mi Calm Calm - N/A   Scattered Clouds
9:13 AM 14.0 °F - 10.4 °F 86% 30.34 in 10.0 mi Calm Calm - N/A   Clear
9:33 AM 15.8 °F - 10.4 °F 79% 30.35 in 10.0 mi Calm Calm - N/A   Clear
9:53 AM 17.6 °F - 14.0 °F 86% 30.34 in 10.0 mi Calm Calm - N/A   Clear
10:13 AM 19.4 °F - 15.8 °F 86% 30.33 in 10.0 mi Calm Calm - N/A   Clear
10:33 AM 23.0 °F - 17.6 °F 80% 30.33 in 10.0 mi Calm Calm - N/A   Clear
10:54 AM 24.8 °F 16.1 °F 15.8 °F 69% 30.31 in 10.0 mi South 8.1 mph - N/A   Clear
11:14 AM 24.8 °F 16.1 °F 15.8 °F 69% 30.28 in 10.0 mi SSE 8.1 mph - N/A   Clear
11:33 AM 24.8 °F 15.3 °F 15.8 °F 69% 30.28 in 10.0 mi South 9.2 mph - N/A   Clear
11:53 AM 26.6 °F 17.5 °F 15.8 °F 64% 30.25 in 10.0 mi South 9.2 mph - N/A   Clear
12:13 PM 26.6 °F 16.8 °F 14.0 °F 59% 30.24 in 10.0 mi SSE 10.4 mph - N/A   Clear
12:33 PM 24.8 °F 16.1 °F 14.0 °F 64% 30.24 in 10.0 mi SSE 8.1 mph - N/A   Clear
12:53 PM 24.8 °F 16.9 °F 14.0 °F 64% 30.24 in 10.0 mi SSE 6.9 mph - N/A   Clear
1:13 PM 24.8 °F 16.9 °F 14.0 °F 64% 30.23 in 10.0 mi SSE 6.9 mph - N/A   Clear
1:33 PM 24.8 °F 16.9 °F 15.8 °F 69% 30.21 in 10.0 mi SSE 6.9 mph - N/A   Clear
1:53 PM 26.6 °F 19.1 °F 15.8 °F 64% 30.20 in 10.0 mi South 6.9 mph - N/A   Clear
2:13 PM 26.6 °F 20.0 °F 15.8 °F 64% 30.18 in 10.0 mi South 5.8 mph - N/A   Clear
2:34 PM 26.6 °F 22.6 °F 15.8 °F 64% 30.17 in 10.0 mi SSE 3.5 mph - N/A   Clear
2:53 PM 26.6 °F 20.0 °F 15.8 °F 64% 30.15 in 10.0 mi SE 5.8 mph - N/A   Clear
3:13 PM 26.6 °F 18.2 °F 14.0 °F 59% 30.15 in 10.0 mi ESE 8.1 mph - N/A   Clear
3:33 PM 24.8 °F 16.1 °F 14.0 °F 64% 30.13 in 10.0 mi ESE 8.1 mph - N/A   Clear
3:53 PM 24.8 °F 16.9 °F 15.8 °F 69% 30.11 in 10.0 mi ESE 6.9 mph - N/A   Clear
4:13 PM 24.8 °F 16.9 °F 15.8 °F 69% 30.11 in 10.0 mi ESE 6.9 mph - N/A   Clear
4:33 PM 26.6 °F 19.1 °F 15.8 °F 64% 30.10 in 10.0 mi ESE 6.9 mph - N/A   Scattered Clouds
4:53 PM 26.6 °F 21.2 °F 15.8 °F 64% 30.09 in 10.0 mi ESE 4.6 mph - N/A   Overcast
5:13 PM 26.6 °F 18.2 °F 15.8 °F 64% 30.07 in 10.0 mi ESE 8.1 mph - N/A   Overcast
5:33 PM 26.6 °F 17.5 °F 15.8 °F 64% 30.06 in 10.0 mi SE 9.2 mph - N/A   Overcast
5:53 PM 28.4 °F 22.2 °F 15.8 °F 59% 30.04 in 10.0 mi SE 5.8 mph - N/A   Overcast
6:13 PM 28.4 °F 21.2 °F 15.8 °F 59% 30.03 in 10.0 mi ESE 6.9 mph - N/A   Overcast
6:33 PM 28.4 °F 21.2 °F 14.0 °F 55% 30.01 in 10.0 mi ESE 6.9 mph - N/A   Overcast
6:53 PM 28.4 °F 21.2 °F 15.8 °F 59% 29.99 in 10.0 mi ESE 6.9 mph - N/A   Scattered Clouds
7:13 PM 28.4 °F 21.2 °F 14.0 °F 55% 29.97 in 10.0 mi ESE 6.9 mph - N/A   Mostly Cloudy
7:33 PM 28.4 °F 21.2 °F 15.8 °F 59% 29.96 in 10.0 mi ESE 6.9 mph - N/A   Scattered Clouds
7:53 PM 28.4 °F 22.2 °F 15.8 °F 59% 29.95 in 10.0 mi ESE 5.8 mph - N/A   Overcast
8:13 PM 28.4 °F 22.2 °F 15.8 °F 59% 29.94 in 10.0 mi SE 5.8 mph - N/A   Scattered Clouds
8:33 PM 28.4 °F 22.2 °F 15.8 °F 59% 29.92 in 10.0 mi SE 5.8 mph - N/A   Overcast
8:53 PM 28.4 °F 23.3 °F 15.8 °F 59% 29.92 in 10.0 mi SE 4.6 mph - N/A   Scattered Clouds
9:13 PM 28.4 °F 24.6 °F 15.8 °F 59% 29.92 in 10.0 mi SE 3.5 mph - N/A   Scattered Clouds
9:33 PM 28.4 °F 24.6 °F 15.8 °F 59% 29.90 in 10.0 mi SE 3.5 mph - N/A   Mostly Cloudy
9:53 PM 30.2 °F - 15.8 °F 55% 29.90 in 10.0 mi Calm Calm - N/A   Scattered Clouds
10:13 PM 30.2 °F 25.4 °F 15.8 °F 55% 29.88 in 10.0 mi SSE 4.6 mph - N/A   Scattered Clouds
10:33 PM 30.2 °F 24.3 °F 15.8 °F 55% 29.86 in 10.0 mi South 5.8 mph - N/A   Scattered Clouds
10:53 PM 30.2 °F 22.6 °F 17.6 °F 60% 29.85 in 10.0 mi South 8.1 mph - N/A   Mostly Cloudy
11:13 PM 32.0 °F 24.2 °F 15.8 °F 51% 29.85 in 10.0 mi South 9.2 mph - N/A   Mostly Cloudy
11:33 PM 32.0 °F 26.4 °F 17.6 °F 55% 29.84 in 10.0 mi South 5.8 mph - N/A   Mostly Cloudy
11:53 PM 32.0 °F 26.4 °F 17.6 °F 55% 29.84 in 10.0 mi South 5.8 mph - N/A   Overcast